Newport Airport, OR

9:46 AM PDT on August 23, 2017 (GMT -0700)
Newport Municipal

Weather History for KONP - January, 2013

Change the Weather History Date:

Friday, January 25, 2013

  Actual Average Record
Temperature  
Mean Temperature 46 °F -  
Max Temperature 50 °F 48 °F 69 °F (2015)
Min Temperature 41 °F 40 °F 33 °F (2008)
Degree Days  
Heating Degree Days 20    
Moisture  
Dew Point 45 °F    
Average Humidity 96    
Maximum Humidity 100    
Minimum Humidity 93    
Precipitation  
Precipitation 0.34 in - - ()
Sea Level Pressure  
Sea Level Pressure 30.08 in    
Wind  
Wind Speed 12 mph (SSW)    
Max Wind Speed 17 mph    
Max Gust Speed 24 mph    
Visibility 4 miles    
Events Fog , Rain    
Averages and records for this station are not official NWS values.
T = Trace of Precipitation, MM = Missing Value Source: NWS Daily Summary

Daily Weather History Graph

Daily Weather History Graph

Search for Another Location

Airport or City:

Trip Planner

Search our weather history database for the weather conditions in past years. The results will help you decide how hot, cold, wet, or windy it might be!

Date:

Astronomy

Jan. 25, 2013 Rise Set
Actual Time 7:41 AM PST 5:15 PM PST
Civil Twilight 7:10 AM PST 5:47 PM PST
Nautical Twilight 6:34 AM PST 6:22 PM PST
Astronomical Twilight 6:00 AM PST 6:57 PM PST
Moon 4:18 PM PST (1/25) 6:25 AM PST (1/25)
Length of Visible Light 10h 37m
Length of Day
9h 34m
Waxing Gibbous, 98% of the Moon is Illuminated
Jan 25
Waxing Gibbous
Jan 26
Full
Feb 3
Last Quarter
Feb 9
New
Feb 17
First Quarter

Hourly Weather History & Observations

Time (PST) Temp. Windchill Dew Point Humidity Pressure Visibility Wind Dir Wind Speed Gust Speed Precip Events Conditions
12:15 AM 46.4 °F 40.4 °F 44.6 °F 93% 30.16 in 4.0 mi South 13.8 mph 21.9 mph N/A   Drizzle
12:35 AM 46.4 °F 41.1 °F 44.6 °F 93% 30.15 in 5.0 mi South 11.5 mph 18.4 mph N/A   Overcast
12:55 AM 46.4 °F 41.1 °F 44.6 °F 93% 30.15 in 3.0 mi South 11.5 mph - N/A Rain Rain
1:15 AM 46.4 °F 40.7 °F 44.6 °F 93% 30.15 in 3.0 mi South 12.7 mph 23.0 mph 0.01 in   Drizzle
1:35 AM 46.4 °F 40.7 °F 44.6 °F 93% 30.14 in 2.5 mi South 12.7 mph 21.9 mph 0.01 in   Drizzle
1:55 AM 46.4 °F 40.1 °F 44.6 °F 93% 30.14 in 3.0 mi South 15.0 mph - 0.01 in   Drizzle
2:15 AM 46.4 °F 39.8 °F 44.6 °F 93% 30.14 in 3.0 mi South 16.1 mph - N/A Rain Light Rain
2:35 AM 46.4 °F 39.8 °F 44.6 °F 93% 30.14 in 4.0 mi South 16.1 mph 20.7 mph 0.01 in Rain Light Rain
2:55 AM 46.4 °F 40.1 °F 44.6 °F 93% 30.14 in 3.0 mi South 15.0 mph 21.9 mph 0.02 in   Drizzle
3:15 AM 46.4 °F 40.1 °F 44.6 °F 93% 30.14 in 3.0 mi South 15.0 mph 24.2 mph N/A Rain Rain
3:35 AM 46.4 °F 40.4 °F 44.6 °F 93% 30.13 in 3.0 mi South 13.8 mph 19.6 mph 0.01 in   Drizzle
3:55 AM 46.4 °F 39.8 °F 44.6 °F 93% 30.12 in 2.5 mi South 16.1 mph 20.7 mph 0.01 in   Drizzle
4:15 AM 46.4 °F 40.7 °F 44.6 °F 93% 30.12 in 2.5 mi South 12.7 mph 17.3 mph N/A   Drizzle
4:35 AM 46.4 °F 40.4 °F 44.6 °F 93% 30.12 in 2.5 mi South 13.8 mph 20.7 mph 0.01 in Rain Rain
4:55 AM 46.4 °F 40.4 °F 44.6 °F 93% 30.11 in 3.0 mi South 13.8 mph 21.9 mph 0.01 in   Drizzle
5:15 AM 46.4 °F 40.1 °F 46.4 °F 100% 30.11 in 2.0 mi South 15.0 mph 21.9 mph N/A Rain Light Rain
5:35 AM 46.4 °F 39.8 °F 46.4 °F 100% 30.11 in 2.5 mi South 16.1 mph 21.9 mph 0.01 in Rain Rain
5:55 AM 46.4 °F 40.1 °F 46.4 °F 100% 30.11 in 2.5 mi South 15.0 mph - 0.02 in Rain Light Rain
6:15 AM 46.4 °F 39.8 °F 46.4 °F 100% 30.11 in 3.0 mi South 16.1 mph - 0.02 in   Heavy Drizzle
6:35 AM 46.4 °F 39.8 °F 46.4 °F 100% 30.10 in 3.0 mi South 16.1 mph 23.0 mph 0.04 in Rain Light Rain
6:55 AM 46.4 °F 40.4 °F 46.4 °F 100% 30.10 in 4.0 mi South 13.8 mph - 0.06 in Rain Rain
7:15 AM 46.4 °F 40.1 °F 46.4 °F 100% 30.10 in 3.0 mi South 15.0 mph 23.0 mph 0.01 in   Heavy Drizzle
7:35 AM 46.4 °F 40.1 °F 46.4 °F 100% 30.10 in 2.5 mi South 15.0 mph 21.9 mph 0.02 in Rain Heavy Rain
7:55 AM 46.4 °F 40.1 °F 46.4 °F 100% 30.10 in 1.8 mi SSW 15.0 mph 21.9 mph 0.04 in   Heavy Drizzle
8:15 AM 48.2 °F - 46.4 °F 93% 30.10 in 1.8 mi South 13.8 mph 18.4 mph 0.01 in Rain Heavy Rain
8:35 AM 48.2 °F - 46.4 °F 93% 30.10 in 1.5 mi South 15.0 mph 20.7 mph 0.03 in Rain Light Rain
8:55 AM 48.2 °F - 46.4 °F 93% 30.10 in 1.8 mi SSW 15.0 mph - 0.06 in Rain Rain
9:15 AM 48.2 °F - 46.4 °F 93% 30.10 in 2.5 mi SSW 16.1 mph 21.9 mph 0.02 in Rain Rain
9:35 AM 48.2 °F - 46.4 °F 93% 30.10 in 1.0 mi South 17.3 mph - 0.05 in Rain Heavy Rain
9:55 AM 48.2 °F - 46.4 °F 93% 30.11 in 1.0 mi SSW 13.8 mph 19.6 mph 0.07 in Rain Rain
10:15 AM 48.2 °F - 46.4 °F 93% 30.11 in 0.8 mi SSW 15.0 mph 21.9 mph N/A   Drizzle
10:35 AM 48.2 °F - 46.4 °F 93% 30.11 in 0.8 mi SSW 16.1 mph 20.7 mph 0.01 in Rain Light Rain
10:55 AM 48.2 °F - 46.4 °F 93% 30.10 in 1.0 mi SSW 16.1 mph 21.9 mph 0.02 in   Heavy Drizzle
11:15 AM 48.2 °F - 46.4 °F 93% 30.10 in 1.0 mi SSW 13.8 mph 19.6 mph N/A Rain Rain
11:35 AM 48.2 °F - 48.2 °F 100% 30.10 in 0.8 mi SW 11.5 mph - 0.01 in   Drizzle
11:55 AM 50.0 °F - 48.2 °F 94% 30.09 in 0.8 mi SSW 10.4 mph - 0.01 in   Overcast
12:15 PM 48.2 °F - 48.2 °F 100% 30.08 in 0.5 mi West 4.6 mph - N/A Rain Light Rain
12:35 PM 48.2 °F - 48.2 °F 100% 30.08 in 2.5 mi WNW 5.8 mph - N/A   Overcast
12:55 PM 48.2 °F - 48.2 °F 100% 30.07 in 1.0 mi West 3.5 mph - N/A   Overcast
1:15 PM 48.2 °F - 46.4 °F 93% 30.06 in 1.0 mi West 3.5 mph - N/A Rain Light Rain
1:35 PM 48.2 °F - 46.4 °F 93% 30.06 in 1.0 mi West 3.5 mph - N/A   Light Drizzle
1:55 PM 48.2 °F - 46.4 °F 93% 30.06 in 1.2 mi WSW 3.5 mph - N/A   Overcast
2:15 PM 46.4 °F 42.9 °F 46.4 °F 100% 30.05 in 0.2 mi West 6.9 mph - N/A   Drizzle
2:35 PM 46.4 °F 43.5 °F 46.4 °F 100% 30.05 in 0.2 mi West 5.8 mph - 0.01 in Fog Fog
2:55 PM 46.4 °F 43.5 °F 46.4 °F 100% 30.05 in 0.5 mi WSW 5.8 mph - 0.01 in Fog Fog
3:15 PM 46.4 °F 42.9 °F 44.6 °F 93% 30.05 in 0.5 mi West 6.9 mph - N/A Fog Fog
3:35 PM 46.4 °F 42.9 °F 44.6 °F 93% 30.06 in 0.5 mi West 6.9 mph - N/A Fog Fog
3:55 PM 44.6 °F 41.4 °F 44.6 °F 100% 30.06 in 0.5 mi WSW 5.8 mph - N/A Fog Fog
4:15 PM 44.6 °F 41.4 °F 44.6 °F 100% 30.06 in 1.0 mi West 5.8 mph - N/A   Overcast
4:35 PM 44.6 °F 41.4 °F 44.6 °F 100% 30.05 in 1.2 mi West 5.8 mph - N/A   Overcast
4:55 PM 44.6 °F 43.1 °F 44.6 °F 100% 30.05 in 1.5 mi WSW 3.5 mph - N/A   Overcast
5:15 PM 44.6 °F 43.1 °F 44.6 °F 100% 30.04 in 0.5 mi SW 3.5 mph - N/A Fog Fog
5:35 PM 44.6 °F 41.4 °F 44.6 °F 100% 30.04 in 0.5 mi SW 5.8 mph - N/A Fog Fog
5:55 PM 44.6 °F 40.7 °F 44.6 °F 100% 30.04 in 1.2 mi SW 6.9 mph - N/A Rain Light Rain
6:15 PM 44.6 °F 40.7 °F 44.6 °F 100% 30.04 in 1.0 mi SW 6.9 mph - N/A Rain Light Rain
6:35 PM 44.6 °F 39.2 °F 42.8 °F 93% 30.04 in 1.8 mi South 10.4 mph - N/A   Overcast
6:55 PM 42.8 °F 39.3 °F 42.8 °F 100% 30.03 in 10.0 mi SSE 5.8 mph - N/A   Scattered Clouds
7:15 PM 42.8 °F 40.1 °F 42.8 °F 100% 30.03 in 10.0 mi SSE 4.6 mph - N/A   Scattered Clouds
7:35 PM 42.8 °F 41.1 °F 41.0 °F 93% 30.03 in 10.0 mi SSE 3.5 mph - N/A   Mostly Cloudy
7:55 PM 41.0 °F 37.1 °F 41.0 °F 100% 30.03 in 10.0 mi SSE 5.8 mph - N/A   Overcast
8:15 PM 42.8 °F 40.1 °F 41.0 °F 93% 30.02 in 10.0 mi SE 4.6 mph - N/A   Overcast
8:35 PM 41.0 °F 37.1 °F 41.0 °F 100% - 10.0 mi SE 5.8 mph - N/A   Mostly Cloudy
8:55 PM 41.0 °F 38.0 °F 41.0 °F 100% - 10.0 mi SSE 4.6 mph - N/A   Scattered Clouds
9:15 PM 41.0 °F 36.4 °F 41.0 °F 100% 30.02 in 10.0 mi SSE 6.9 mph - N/A   Clear
9:35 PM 41.0 °F 35.8 °F 41.0 °F 100% 30.02 in 10.0 mi SSE 8.1 mph - N/A   Clear
9:55 PM 42.8 °F 38.0 °F 41.0 °F 93% 30.02 in 10.0 mi SSE 8.1 mph - N/A   Mostly Cloudy
10:15 PM 42.8 °F 38.0 °F 41.0 °F 93% - 10.0 mi SSE 8.1 mph - N/A   Mostly Cloudy
10:35 PM 42.8 °F 38.0 °F 41.0 °F 93% 30.01 in 10.0 mi SSE 8.1 mph - N/A   Mostly Cloudy
10:55 PM 42.8 °F 38.0 °F 41.0 °F 93% 30.01 in 10.0 mi SSE 8.1 mph - N/A   Mostly Cloudy
11:15 PM 42.8 °F 37.5 °F 41.0 °F 93% 30.01 in 10.0 mi SSE 9.2 mph - N/A   Mostly Cloudy
11:35 PM 42.8 °F 37.5 °F 41.0 °F 93% 30.00 in 10.0 mi SSE 9.2 mph - N/A   Scattered Clouds
11:55 PM 42.8 °F 37.5 °F 41.0 °F 93% 30.00 in 10.0 mi SSE 9.2 mph - N/A   Light Drizzle